Regional Weather Roundup
Issued by NWS

Home | Current Version | Previous Version | Text Only | Print | Product List | Glossary On
Versions: 1 2 3 4 5 6 7 8 9 10 11 12 13 14 15 16 17 18 19 20 21 22 23 24 25 26 27 28 29 30 31 32 33 34 35 36 37 38 39 40 41 42 43 44 45 46 47 48 49 50
000
ASUS45 KBOI 191610
RWRID
WEATHER ROUNDUP FOR IDAHO
NATIONAL WEATHER SERVICE BOISE ID
900 AM MST FRI DEC 19 2014

NOTE: "FAIR" INDICATES FEW OR NO CLOUDS BELOW 12000 FEET
WITH NO SIGNIFICANT WEATHER AND/OR OBSTRUCTIONS TO VISIBILITY

IDZ012-014-191700-
SOUTHWEST IDAHO


CITY           SKY/WX    TMP DP  RH WIND       PRES   REMARKS
BOISE          LGT RAIN  43  33  68 SE16      30.02F
CALDWELL       CLOUDY    39  30  70 SE8       30.05R WCI  34
MOUNTAIN HOME  CLOUDY    39  31  74 SE16      30.06S WCI  30
$$

IDZ016-017-191700-
SOUTHCENTRAL IDAHO


CITY           SKY/WX    TMP DP  RH WIND       PRES   REMARKS
BURLEY         MOCLDY    39  25  57 SW20G28   30.08R WCI  29
JEROME         CLOUDY    35  28  75 NE9       30.10R WCI  28
TWIN FALLS     CLOUDY    43  26  51 S17G26    30.07R
$$

IDZ019>023-191700-
SOUTHEAST IDAHO


CITY           SKY/WX    TMP DP  RH WIND       PRES   REMARKS
IDAHO FALLS    LGT SNOW  32  29  88 SW6       30.14R VSB 3/4 WCI  26
POCATELLO      MOCLDY    38  29  70 SE8G20    30.12S WCI  32
REXBURG        LGT SNOW  31  31 100 N3        30.13R FOG
$$

IDZ006-010-011-018-031-032-191700-
CENTRAL IDAHO MOUNTAINS


CITY           SKY/WX    TMP DP  RH WIND       PRES   REMARKS
MCCALL         LGT SNOW  33  31  92 SE9       29.96F FOG     WCI  25
HAILEY         FLURRIES  32  30  93 NW3       30.11S
STANLEY          N/A     31  25  78 S7        30.01F WCI  24
SALMON         CLOUDY    27  23  86 NE3       30.05S
CHALLIS        CLOUDY    27  24  89 SE3       30.05F
$$

IDZ002-004-006-007-026-191700-
NORTHERN IDAHO


CITY           SKY/WX    TMP DP  RH WIND       PRES   REMARKS
LEWISTON       LGT RAIN  43  39  86 E13       29.91F
LOWELL           N/A     37  35  92 NW5       29.99S WCI  33
COEUR D`ALENE  CLOUDY    37  36  93 E3        29.87S
MULLAN PASS    SNOW      32  29  88 VRB7      29.84S VSB 1/4 WCI  26
$$


USA.gov is the U.S. government's official web portal to all federal, state and local government web resources and services.